Regional Weather Roundup
Issued by NWS

Home | Current Version | Previous Version | Graphics & Text | Print | Product List | Glossary On
Versions: 1 2 3 4 5 6 7 8 9 10 11 12 13 14 15 16 17 18 19 20 21 22 23 24 25 26 27 28 29 30 31 32 33 34 35 36 37 38 39 40 41 42 43 44 45 46 47 48 49 50
000
ASUS43 KLOT 270600
RWRIL

ILLINOIS REGIONAL WEATHER ROUNDUP
NATIONAL WEATHER SERVICE CHICAGO/ROMEOVILLE IL
100 AM CDT WED AUG 27 2014

NOTE: "FAIR" INDICATES FEW OR NO CLOUDS BELOW 12,000 FEET WITH NO
SIGNIFICANT WEATHER AND/OR OBSTRUCTIONS TO VISIBILITY.

* THESE STATIONS ARE NOT UNDER NWS QUALITY CONTROL. THEY ALSO MAY NOT
  REPORT WEATHER SUCH AS PRECIPITATION OR FOG.

ILZ001-002-007-009-015-016-024-270700-
NORTHWEST ILLINOIS

CITY           SKY/WX    TMP DP  RH WIND       PRES   REMARKS
MOLINE         FAIR      69  65  86 CALM      30.13R
6HR MIN TEMP:  68; 6HR MAX TEMP:  81;

STERLING*      FAIR      70  64  83 CALM      30.12S
$$

ILZ003-004-008-010-011-017-018-270700-
NORTH CENTRAL ILLINOIS

CITY           SKY/WX    TMP DP  RH WIND       PRES   REMARKS
ROCKFORD       MOCLDY    69  61  75 NE6       30.14R
6HR MIN TEMP:  68; 6HR MAX TEMP:  77;

FREEPORT*      FAIR      64  63  95 CALM      30.16R
ROCHELLE*      FAIR      66  64  93 CALM      30.13S
$$

ILZ005-006-012>014-019>023-270700-
NORTHEAST ILLINOIS

CITY           SKY/WX    TMP DP  RH WIND       PRES   REMARKS
CHICAGO-OHARE  MOCLDY    72  63  73 NE7       30.10F
6HR MIN TEMP:  71; 6HR MAX TEMP:  80;

CHICAGO-MIDWAY MOCLDY    73  66  78 NE3       30.11S
6HR MIN TEMP:  73; 6HR MAX TEMP:  84;

AURORA         FAIR      68  63  84 NW3       30.12S
6HR MIN TEMP:  68; 6HR MAX TEMP:  82;

WAUKEGAN       FAIR      64  62  93 NW3       30.11F
6HR MIN TEMP:  63; 6HR MAX TEMP:  72;

DUPAGE AIRPORT FAIR      69  63  81 N5        30.11F
6HR MIN TEMP:  69; 6HR MAX TEMP:  83;

WHEELING       FAIR      70  66  87 CALM      30.12F
6HR MIN TEMP:  69; 6HR MAX TEMP:  77;

NORTHERLY ISL    N/A     70  66  87 N6          N/A
$$

LMZ740>746-270700-
SOUTHERN LAKE MICHIGAN

STATION/POSITION SKY/WX   TEMP    WIND        PRES    VSBY  WAVE
                          AIR SEA DIR/SP/G                  HT/PER
                          (F)     (DEG/KT/KT) (MB)    (MI)  (FT/S)
SOUTHERN BUOY              68 69  360/  4/  6 1019.7R         0
WAUKEGAN HARBOR            69      10/  5/  6   N/A
HARRISON CRIB              71      50/  2/  3   N/A
BURNHAM HARBOR             70      20/  4       N/A
CALUMET HARBOR             70      10/  2/  3 1018.5R
MICHIGAN CITY              69      40/  4/  5   N/A
MICHIGAN CITY 6N           71 73   40/  6/  8   N/A           1/ 3
ST. JOSEPH                 70 73   50/  8/  8   N/A           1/ 4
$$

ILZ025>027-034>036-040-047-049-050-058-095>099-270700-
WEST-CENTRAL ILLINOIS

CITY           SKY/WX    TMP DP  RH WIND       PRES   REMARKS
QUINCY         FAIR      72  70  93 N5        30.11S
MACOMB*        FAIR      69  68  97 CALM      30.13S
$$

ILZ028>032-037-038-041>044-048-051>054-059>061-270700-
CENTRAL ILLINOIS

CITY           SKY/WX    TMP DP  RH WIND       PRES   REMARKS
DECATUR        FAIR      70  66  87 CALM      30.09F
PEORIA         FAIR      77  71  82 CALM      30.10S
6HR MIN TEMP:  76; 6HR MAX TEMP:  84;

SPRINGFIELD    FAIR      73  66  78 W6        30.08F
6HR MIN TEMP:  73; 6HR MAX TEMP:  89;

TAYLORVILLE    NOT AVBL
$$

ILZ033-039-045-046-055>057-062-063-270700-
EAST-CENTRAL ILLINOIS

CITY           SKY/WX    TMP DP  RH WIND       PRES   REMARKS
CHAMPAIGN      FAIR      70  66  87 CALM      30.12R
MATTOON        LGT RAIN  73  67  81 N9        30.09R
$$

ILZ079-100>102-270700-
SOUTHWEST ILLINOIS

CITY           SKY/WX    TMP DP  RH WIND       PRES   REMARKS
BELLEVILLE     FAIR      74  69  83 W2        30.11F
$$

ILZ064>066-069>071-074>076-080>082-084>086-088>090-092>094-270700-
SOUTH-CENTRAL ILLINOIS

CITY           SKY/WX    TMP DP  RH WIND       PRES   REMARKS
CARBONDALE     FAIR      74  72  93 CALM      30.09S FOG
6HR MIN TEMP:  73; 6HR MAX TEMP:  87;

MT. VERNON     FAIR      73  70  88 CALM      30.10F
SALEM*         FAIR      75  73  91 NW3       30.10F
$$

ILZ067-068-072-073-078-083-087-091-270700-
SOUTHEAST ILLINOIS

CITY           SKY/WX    TMP DP  RH WIND       PRES   REMARKS
LAWRENCEVILLE  FAIR      74  72  93 CALM      30.09S
HARRISBURG*    FAIR      74  74  99 CALM      30.09S FOG
ROBINSON*      FAIR      73  72  97 CALM      30.10F
$$

ABBREVIATIONS USED IN REMARKS
   TC - TEMPERATURE IN CELSIUS
  WCI - WIND CHILL INDEX
   HX - HEAT INDEX
  VSB - VISIBILITY
$$




USA.gov is the U.S. government's official web portal to all federal, state and local government web resources and services.